Language selection

My Weather Profile Weather Topics  | 

West Coast Haida Gwaii - southern half: Past 24 Hour Conditions

 

East Dellwood - 46207

06:00 AM PDT 04 July 2022Buoy position: 50.88N 129.93W
Disclaimer

This table is a summary of hourly weather conditions for the past 24 hours.
Please note that these observations might not always be representative of weather conditions over their associated marine area.

Date / Time
(PDT)
Wind(knots) Wave height(m) Wave period(s) Pressure(kPa) Air tempC) Water tempC)
04 July 2022
6:00 W 14 gust 18 N/A 9.5 101.2 12 13
5:00 W 15 gust 17 1.5 8.8 101.2 12 13
4:00 W 12 gust 16 1.5 5.4 101.2 12 13
3:00 W 13 gust 17 1.5 5.7 101.2 12 13
2:00 WNW 15 gust 19 1.3 9.5 101.2 12 13
1:00 W 14 gust 18 1.3 5.8 101.3 12 14
0:00 W 13 gust 17 1.3 15.1 101.3 12 14
03 July 2022
23:00 W 14 gust 17 1.2 15.1 101.3 12 14
22:00 W 12 gust 15 1.2 5.6 101.3 12 14
21:00 WNW 13 gust 17 N/A 5.4 101.3 12 14
20:00 W 13 gust 17 N/A 5.3 101.3 13 14
19:00 W 15 gust 17 1.3 15.1 101.3 13 14
18:00 W 13 gust 17 1.3 16.0 101.3 13 14
17:00 WNW 14 gust 17 1.3 15.1 101.3 13 14
16:00 WNW 15 gust 17 N/A 15.1 101.3 13 14
15:00 WNW 14 gust 16 1.2 16.0 101.3 13 14
14:00 WNW 14 gust 18 1.2 13.5 101.3 12 14
13:00 WNW 15 gust 17 1.2 15.1 101.3 12 13
12:00 WNW 15 gust 17 1.1 16.0 101.3 12 13
11:00 WNW 14 gust 17 1.1 5.3 101.3 12 13
10:00 WNW 13 gust 16 N/A 5.2 101.3 12 13
9:00 WNW 14 gust 17 N/A 14.2 101.3 12 13
8:00 WNW 15 gust 18 1.3 4.9 101.4 12 13
7:00 WNW 15 gust 18 1.3 16.0 101.4 12 13
6:00 NW 15 gust 18 1.3 16.0 101.4 12 13

Zoom-in to make a selection

Map of Pacific - North Coast marine weather areas Middle Nomad - 46004 South Nomad - 46036 Dixon Entrance Central - 46145 South Moresby - 46147 Nanakwa Shoal - 46181 North Hecate Strait - 46183 North Nomad - 46184 South Hecate Strait - 46185 West Sea Otter - 46204 West Dixon Entrance - 46205 East Dellwood - 46207 West Moresby - 46208 Sartine Island Cape St.James Kindakun Rocks Langara Island Masset Municipal Airport Rose Spit Sandspit Airport Bella Bella Airport Bella Coola Airport Bonilla Island Cathedral Point Cumshewa Island Grey Islet Holland Rock Lucy Islands Lightstation Prince Rupert Airport
Legend:
buoy Buoy
land station Land Station

Pacific - North Coast Area

Another Region

What we are doing

Features

WeatherCAN app: set custom notifications

Learn how to set custom Air Quality Health Index notifications on the WeatherCAN app

Date modified: